Flag for U.S.A. Weather past 2 weeks in Portsmouth, Virginia, U.S.A.

Now
43 °F

Clear.


Feels Like: 37 °F
Forecast: 35 / 45 °F
Wind: 12 mph from North

Location: Norfolk Naval Air Station

Current Time: Dec 18, 2014 at 3:41:24 AM

Latest Report: Dec 18, 2014 at 2:59 AM


Visibility: 10 mi

Pressure: 30.11 "Hg

Humidity: 56%

Dew point: 28 °F

Location of PortsmouthLocation

Historic Weather in Portsmouth — Graph

°F

Portsmouth temperature yesterday

Maximum temperature yesterday: 61 °F (at 1:59 PM)
Minimum temperature yesterday: 44 °F (at 6:59 AM)
Average temperature yesterday: 52 °F

Past Weeks' High & Low Weather Summary

 TemperatureHumidityPressure
High65 °F (Dec 16, 12:59 PM)90% (Dec 3, 7:59 AM)30.51 "Hg (Dec 3, 7:59 AM)
Low36 °F (Dec 12, 11:59 PM)29% (Dec 12, 1:59 PM)29.81 "Hg (Dec 10, 1:59 PM)
Average48 °F66%30.13 "Hg
* Reported Dec 3 1:59 AM — Dec 18 1:59 AM, Portsmouth, Weather by CustomWeather, © 2014

Note: Actual official high and low records may vary slightly from our data, if they occured in-between our weather recording intervals... More about our weather records

Advertising

Portsmouth weather history for previous 24 hours

 ConditionsComfort  
Time TempWeatherWind HumidityBarometerVisibility
1:59 AM
Dec 18
45 °FClear.12 mph56%30.09 "Hg10 mi
12:59 AM46 °FPassing clouds.10 mph61%30.06 "Hg10 mi
11:59 PM
Dec 17
48 °FPassing clouds.13 mph63%30.04 "Hg10 mi
10:59 PM49 °FPassing clouds.5 mph64%30.04 "Hg10 mi
9:59 PM51 °FPassing clouds.6 mph59%30.03 "Hg10 mi
8:59 PM49 °FPassing clouds.5 mph66%30.03 "Hg10 mi
7:59 PM52 °FPassing clouds.5 mph61%30.03 "Hg10 mi
6:59 PM53 °FPassing clouds.6 mph61%30.03 "Hg10 mi
5:59 PM53 °FPassing clouds.8 mph59%30.02 "Hg10 mi
4:59 PM57 °FPassing clouds.6 mph49%29.99 "Hg10 mi
3:59 PM58 °FScattered clouds.7 mph51%29.98 "Hg10 mi
2:59 PM61 °FPassing clouds.9 mph44%29.97 "Hg10 mi
1:59 PM61 °FPassing clouds.8 mph44%29.98 "Hg10 mi
12:59 PM60 °FPassing clouds.12 mph52%30.00 "Hg10 mi
11:59 AM57 °FPassing clouds.8 mph58%30.02 "Hg10 mi
10:59 AM53 °FPassing clouds.8 mph64%30.05 "Hg10 mi
9:59 AM51 °FPassing clouds.7 mph71%30.07 "Hg9 mi
8:59 AM48 °FSunny.5 mph80%30.05 "Hg7 mi
7:59 AM45 °FFog.3 mph86%30.04 "Hg6 mi
6:59 AM44 °FFog.3 mph85%30.02 "Hg3 mi
5:59 AM45 °FFog.3 mph86%29.98 "Hg2 mi
4:59 AM47 °FFog.No wind86%29.97 "Hg0 mi
3:59 AM47 °FFog.5 mph86%29.95 "Hg1 mi
Weather by CustomWeather, © 2014

See weather overviewHow to use our weather pages